Regional Weather Roundup
Issued by NWS

Home | Current Version | Previous Version | Text Only | Print | Product List | Glossary Off
Versions: 1 2 3 4 5 6 7 8 9 10 11 12 13 14 15 16 17 18 19 20 21 22 23 24 25 26 27 28 29 30 31 32 33 34 35 36 37 38 39 40 41 42 43 44 45 46 47 48 49 50

000
ASUS45 KABQ 060301
RWRNM
WEATHER ROUNDUP FOR NEW MEXICO
NATIONAL WEATHER SERVICE ALBUQUERQUE NM
900 PM MDT TUE MAY 05 2015

NOTE: "FAIR" MEANS FEW OR NO CLOUDS BELOW 12,000 FEET AGL WITH NO
       SIGNIFICANT WEATHER OR OBSTRUCTIONS TO VISION.

      THIS PRODUCT IS RELEASED AS TWO VERSIONS.  ONE VERSION NEAR
      THE TOP OF THE HOUR CONTAINING PRELIMINARY DATA FROM ALBUQUERQUE
      AND OTHER STATIONS.  A FINAL VERSION WITH ADDITIONAL DATA IS
      ISSUED ABOUT 10 MINUTES AFTER THE HOUR.

NMZ501-503-504-510>518-060400-
NORTHWEST PLATEAU/NORTHCENTRAL MOUNTAINS

CITY           SKY/WX    TMP DP  RH WIND       PRES   REMARKS
FARMINGTON     MOCLDY    52  45  77 SW3       29.88R
SANTA FE       CLOUDY    48  45  89 SW3       29.94R
TAOS           MOCLDY    46  34  61 CALM      29.95R

$$
NMZ402-403-502-505>509-060400-
WESTCENTRAL MOUNTAINS/SOUTHWEST MOUNTAINS

CITY           SKY/WX    TMP DP  RH WIND       PRES   REMARKS
GALLUP         CLOUDY    48  43  82 SW7       29.97R
GRANTS         CLOUDY    46  44  91 CALM      30.01R
SILVER CITY      N/A     59  37  44 NW10      30.01R

$$
NMZ407-409-411-412-060400-
SOUTHERN DESERTS

CITY           SKY/WX    TMP DP  RH WIND       PRES   REMARKS
DEMING         CLEAR     67  37  33 W10       29.93R
ALAMOGORDO     MOCLDY    66  32  28 SW7       29.91R
T OR C         PTCLDY    65  33  30 W6        29.92R

$$
NMZ519>523-060400-
CENTRAL VALLEYS/CENTRAL HIGHLANDS

CITY           SKY/WX    TMP DP  RH WIND       PRES   REMARKS
ALBUQUERQUE    MOCLDY    54  46  74 S3        29.94R
DOUBLE EAGLE   CLOUDY    52  48  87 S6        29.95R
MORIARTY ARPT  FAIR      48  41  77 W7        29.96S
CLINES CORNERS MOCLDY    46  40  79 W18       29.94S
BELEN          FAIR      53  46  78 E3        29.94R
SOCORRO        NOT AVBL

$$
NMZ524>526-539-540-060400-
SOUTHCENTRAL MOUNTAINS

CITY           SKY/WX    TMP DP  RH WIND       PRES   REMARKS
RUIDOSO        NOT AVBL

$$
NMZ527>531-060400-
NORTHEAST HIGHLANDS/NORTHEAST PLAINS

CITY           SKY/WX    TMP DP  RH WIND       PRES   REMARKS
LAS VEGAS      PTCLDY    49  38  65 SW13      29.91R
RATON          MOCLDY    50  44  80 W8        29.82R
CLAYTON        MOCLDY    50  46  86 S9        29.82R

$$
NMZ532>537-060400-
EASTCENTRAL PLAINS

CITY           SKY/WX    TMP DP  RH WIND       PRES   REMARKS
TUCUMCARI      PTCLDY    58  48  69 SW12      29.82R
CANNON AFB     NOT AVBL
CLOVIS AIRPORT MOCLDY    57  48  72 S3        29.87R

$$
NMZ028-029-538-060400-
SOUTHEAST PLAINS

CITY           SKY/WX    TMP DP  RH WIND       PRES   REMARKS
ROSWELL        PTCLDY    62  45  53 SW10      29.83R
ARTESIA        CLEAR     66  41  39 SW13      29.85S
CARLSBAD       CLEAR     61  47  59 SW9       29.84R
HOBBS          CLEAR     59  48  67 CALM      29.89R


$$



USA.gov is the U.S. government's official web portal to all federal, state and local government web resources and services.